Total_Precipitation_Accumulation
0.02 0.08 0.06 0.03 0.07 0.47 0.76 0.84 1.33 1.82 1.57 0.78 0.47 0.51 0.52 0.64 0.56 0.60 0.78 1.40 1.13 0.96 0.96 0.87 0.78 0.61 0.52 0.55 0.48 0.45 0.39 0.30
0.05 0.08 0.11 0.12 0.20 0.56 0.70 0.86 0.73 0.54 0.42 0.41 0.38 0.41 0.33 0.38 0.37 0.55 0.72 1.14 1.32 1.08 1.08 1.04 0.98 0.79 0.58 0.48 0.56 0.70 0.58 0.57
0.01 0.02 0.08 0.22 0.43 0.48 0.41 0.33 0.20 0.20 0.17 0.28 0.34 0.37 0.30 0.25 0.32 0.43 1.00 1.07 1.14 1.10 1.10 0.94 0.87 1.04 1.14 1.06 0.88 0.82 0.63 0.74
0.06 0.09 0.12 0.12 0.10 0.06 0.09 0.15 0.10 0.21 0.23 0.23 0.28 0.41 0.48 0.41 0.38 0.42 0.73 0.79 0.89 0.88 1.09 1.06 1.00 1.18 1.34 1.20 1.08 1.02 1.10 1.13
0.03 0.01 0.01 0.01 0.05 0.08 0.12 0.13 0.19 0.21 0.33 0.14 0.26 0.20 0.22 0.22 0.26 0.28 0.51 0.64 0.71 0.76 0.74 1.09 0.96 1.22 1.47 1.41 1.24 1.05 1.23 1.27
0.06 0.03 0.05 0.06 0.05 0.08 0.09 0.13 0.25 0.27 0.26 0.20 0.35 0.30 0.22 0.19 0.27 0.36 0.47 0.62 0.57 0.77 0.91 0.90 1.17 1.42 1.50 1.55 1.74 1.59 1.38 1.21
0.16 0.14 0.14 0.12 0.11 0.23 0.12 0.13 0.13 0.29 0.35 0.39 0.48 0.63 0.47 0.29 0.23 0.25 0.34 0.54 0.49 0.72 1.09 1.31 1.22 1.27 1.63 1.60 1.75 1.77 1.83 1.73
0.16 0.21 0.32 0.29 0.28 0.35 0.18 0.10 0.16 0.23 0.41 0.55 0.60 1.09 1.25 1.16 0.74 0.44 0.53 0.61 0.48 0.51 0.87 1.35 1.50 1.48 1.60 1.85 1.83 2.00 2.03 1.98
0.28 0.61 0.43 0.38 0.50 0.57 0.39 0.22 0.28 0.31 0.46 0.72 0.74 0.80 1.07 1.78 1.93 1.96 1.57 1.10 0.86 0.79 0.99 1.25 1.48 1.45 1.48 1.64 2.02 2.11 2.25 2.48
0.46 0.55 0.32 0.31 1.01 1.23 0.70 0.52 0.36 0.37 0.45 0.62 0.65 0.92 1.28 1.58 2.05 2.33 3.07 2.91 2.17 1.75 1.69 1.54 1.46 1.50 1.71 1.82 1.82 1.82 1.68 1.62
0.45 0.73 0.31 0.32 1.25 1.06 0.69 0.73 0.83 0.69 0.47 0.49 0.61 0.74 0.95 1.36 1.64 2.56 2.80 3.21 3.52 3.07 2.58 2.25 1.94 1.89 1.80 1.47 1.38 1.53 1.79 1.64
0.52 0.66 0.46 0.34 0.66 1.08 1.10 0.89 1.28 1.36 1.21 1.13 0.85 1.10 1.08 1.43 1.59 1.97 2.66 2.51 2.62 3.32 3.31 2.75 2.51 2.06 1.99 1.86 1.50 1.30 1.38 1.81
0.84 0.66 0.62 0.60 0.47 0.60 1.23 1.35 1.70 2.01 2.58 2.54 1.68 1.79 1.77 1.64 1.83 1.87 1.87 2.14 2.32 2.21 2.46 2.86 2.57 2.52 2.14 2.08 1.94 1.86 1.88 1.74
1.07 0.83 0.57 0.72 0.61 1.01 1.09 1.33 1.41 2.36 3.02 3.11 2.12 2.27 2.03 2.02 2.11 1.93 1.59 1.47 1.42 1.55 1.84 1.99 2.12 2.51 2.37 2.29 1.93 1.55 1.80 1.82
0.97 0.91 0.78 0.64 0.65 1.06 1.03 1.09 1.30 1.93 2.02 2.48 2.35 2.17 2.46 1.83 1.56 1.77 1.87 1.55 1.49 1.43 1.43 1.63 1.82 1.77 2.03 2.25 2.40 2.10 1.73 1.54
0.76 0.70 0.78 0.75 0.62 0.67 0.71 0.75 0.93 1.18 1.30 1.38 1.65 2.10 2.16 1.99 2.03 2.08 1.85 1.90 2.04 1.81 1.67 1.44 1.46 1.79 2.16 2.09 2.14 2.14 2.03 2.02
0.89 0.67 0.52 0.61 0.51 0.47 0.51 0.58 0.69 0.70 0.72 0.89 0.81 0.71 0.89 1.22 1.37 1.32 1.07 1.40 1.74 1.55 1.79 1.38 1.31 1.24 1.93 2.08 2.10 2.14 2.03 2.03
0.97 0.90 0.67 0.59 0.66 0.64 0.65 0.65 0.70 0.65 0.66 0.77 0.72 0.63 0.71 0.67 0.87 0.96 1.03 0.99 1.31 1.42 1.49 1.33 1.01 0.86 1.16 1.13 1.39 1.44 1.76 1.98
1.14 1.20 0.91 0.71 0.72 0.63 0.62 0.64 0.67 0.88 0.86 0.89 0.94 0.83 0.75 0.74 0.82 0.83 1.22 1.61 1.37 1.13 1.05 0.96 0.94 0.97 1.00 0.91 1.04 0.78 0.82 0.87